星链-1179 (STARLINK-1179 )

导读

STARLINK-1179是美国SpaceX公司星链(Starlink)卫星互联网项目的卫星,于2020年1月29日发射升空。作为星链低轨卫星星座组网的组成部分,它为全球偏远地区提供低延迟、高速宽带互联网服务,助力SpaceX实现构建全球卫星通信网络的目标,推动了卫星互联网技术的发展与普及。

Basic Information
目录编号:
45085
目录名称:
STARLINK-1179
国际标识:
2020-006AT
轨道中心:
EARTH
卫星名称:
星链-1179
卫星全名:
星链-1179 (STARLINK-1179 )
卫星状态:
已陨落 最后检测时间 2025-10-05
发射日期:
2020-01-29 UTC
国别 :
美国 (US)
星等 :
--
Orbit Information
数据来源 国际轨道数据
星历时间: 2025-10-05T11:13:54+0800
轨道信息已过期250天
半长轴: 6538.401km
偏心率: 0.0004864
轨道倾角: 53.024°
近地点辐角 238.833°
升交点赤经 161.382°
平近点角 121.224°
近地点: 157.085km
远地点: 163.447km
周期: 87.693分钟
每日圈数: 16.420845
Detailed Information
固有亮度:
5
最大亮度:
2.5
卫星平台:
Starlink V1.0
覆盖范围:
全球
运营商:
太空探索技术公司
运营商所在国:
美国
制造商(研发单位):
太空探索技术公司
制造商所在国:
美国
使用方式:
暂无
Satellite Introduction
星链(Starlink)计划是由太空探索技术公司(SpaceX)提出的一个巨型低轨卫星互联网星座项目,计划在2019年至2024年间在太空搭建由约1.2万颗卫星组成的“星链”网络,其中1584颗将部署在地球上空550千米处的近地轨道,并从2020年开始工作。该卫星仍在工作。